Weather Roundup
Issued by NWS Chicago, IL

Home | Current Version | Previous Version | Text Only | Print | Product List | Glossary Off
Versions: 1 2 3 4 5 6 7 8 9 10 11 12 13 14 15 16 17 18 19 20 21 22 23 24 25 26 27 28 29 30 31 32 33 34 35 36 37 38 39 40 41 42 43 44 45 46 47 48 49 50

000
NZUS59 KLOT 051306
HRRLOT

CHICAGO AREA WEATHER ROUNDUP
NATIONAL WEATHER SERVICE CHICAGO/ROMEOVILLE IL
700 AM CST THU MAR 05 2015

NOTE: "FAIR" INDICATES FEW OR NO CLOUDS BELOW 12,000 FEET WITH NO
SIGNIFICANT WEATHER AND/OR OBSTRUCTIONS TO VISIBILITY.

* THESE STATIONS ARE NOT UNDER NWS QUALITY CONTROL. THEY ALSO MAY NOT
  REPORT WEATHER SUCH AS PRECIPITATION OR FOG.

ILZ005-006-012>014-019>023-051400-
NORTHEAST ILLINOIS

CITY           SKY/WX    TMP DP  RH WIND       PRES   REMARKS
OHARE          MOCLDY     4  -8  57 NW10      30.41R WCI -11
MIDWAY         MOCLDY     9  -6  50 NW8       30.42R WCI  -3
AURORA         PTCLDY    -4 -11  72 NW3       30.43R
LANSING*       MOCLDY    10  -3  54 NW9       30.39S WCI  -2
JOLIET*        MOCLDY     5  -4  67 NW3       30.44R
WAUKEGAN       PTCLDY     0 -11  59 W6        30.41R WCI -12
DUPAGE AIRPORT PTCLDY     2  -7  66 NW8       30.41R WCI -12
WHEELING       PTCLDY     4  -9  55 NW9       30.44R WCI -10
KANKAKEE*      MOCLDY     8   1  75 NW6       30.42R WCI  -2
MORRIS*        MOCLDY     2  -4  75 NW3       30.43R
LEWIS AIRPORT* MOCLDY     5  -6  62 N8        30.42R WCI  -9
NORTHERLY IS     N/A     12  -4  48 W7          N/A  WCI   2
$$

WIZ051-052-058>065-066-070>072-051400-
SOUTHEAST WISCONSIN

CITY           SKY/WX    TMP DP  RH WIND       PRES   REMARKS
MILWAUKEE      PTCLDY     4 -10  52 NW8       30.41R WCI  -9
KENOSHA*       PTCLDY    -4 -13  65 NW6       30.41R WCI -16
RACINE*        PTCLDY     1 -11  57 W8        30.43R WCI -13
BURLINGTON     PTCLDY    -7 -14  70 SW5       30.43R WCI -18
WAUKESHA       CLEAR     -2 -11  65 W6        30.41R WCI -14
WEST BEND      CLEAR     -2  -8  78 CALM      30.40S
$$

INZ001>003-010>013-019-020-051400-
NORTHWEST INDIANA

CITY           SKY/WX    TMP DP  RH WIND       PRES   REMARKS
GARY*          MOCLDY    12  -4  48 W12       30.40S WCI  -2
MICHIGAN CITY* NOT AVBL
RENSSELAER*    NOT AVBL
VALPARAISO     MOCLDY    14   3  61 NW3       30.37S
$$

LMZ740>746-051400-
SOUTHERN LAKE MICHIGAN

STATION/POSITION TIME  SKY/WX   TEMP WIND        PRES    VSBY
                                AIR  DIR/SP/G
                 (UTC)          (F)  (DEG/KT/KT) (MB)    (MI)
HARRISON CRIB    1300            11  300/ 13/ 17   N/A
BURNHAM HARBOR   1300            12  290/  7/ 11   N/A
CALUMET HARBOR   1300            10  280/  8/ 12 1028.1R
BURNS HARBOR     NOT AVBL
MICHIGAN CITY    1300            15  290/  9/ 11   N/A
$$

ABBREVIATIONS USED IN REMARKS
   TC - TEMPERATURE IN CELSIUS
  WCI - WIND CHILL INDEX
   HX - HEAT INDEX
  VSB - VISIBILITY
$$


USA.gov is the U.S. government's official web portal to all federal, state and local government web resources and services.